Location: Unspecified
(35.6961°N, 0.0000°E)
Time: 19:30:26
(UTC+00:00)

Vanguard 1 Rocket - Visible Passes

Search period start: 24 May 2019 00:00
Search period end: 03 June 2019 00:00
Orbit: 652 x 4224 km, 34.3° (Epoch: 23 May)

Date Brightness Start Highest point End Pass type
(mag) Time Alt. Az. Time Alt. Az. Time Alt. Az.
24 May 9.7 00:24:25 12° E 00:24:25 12° E 00:24:59 10° E visible
24 May 7.7 02:41:41 35° WSW 02:44:25 79° S 02:54:24 10° E visible
25 May 7.7 01:34:22 54° ESE 01:34:22 54° ESE 01:40:50 10° E visible
25 May 8.3 03:52:25 10° W 03:58:52 79° S 04:11:32 10° ESE visible
26 May 9.5 00:27:05 14° E 00:27:05 14° E 00:28:04 10° E visible
26 May 7.6 02:44:21 30° W 02:47:25 81° S 02:57:08 10° E visible
27 May 7.4 01:37:05 63° ESE 01:37:05 63° ESE 01:43:40 10° E visible
27 May 8.2 03:55:32 10° W 04:01:49 72° S 04:14:03 10° ESE visible
28 May 9.4 00:29:50 16° E 00:29:50 16° E 00:31:05 10° E visible
28 May 7.6 02:47:07 26° W 02:50:26 79° S 02:59:53 10° E visible
29 May 7.2 01:39:53 70° ESE 01:39:53 70° ESE 01:46:31 10° E visible
29 May 8.2 03:58:39 10° W 04:04:48 63° SSW 04:16:28 10° ESE visible
30 May 9.3 00:32:43 16° E 00:32:43 16° E 00:34:02 10° E visible
30 May 7.5 02:50:00 24° W 02:53:27 74° S 03:02:35 10° ESE visible
31 May 7.1 01:42:51 72° SE 01:42:51 72° SE 01:49:23 10° E visible
31 May 8.3 04:01:49 10° W 04:07:46 52° SSW 04:18:42 10° SE visible
01 Jun 9.3 00:35:46 16° E 00:35:46 16° E 00:37:00 10° E visible
01 Jun 7.5 02:53:04 23° W 02:56:27 64° SSW 03:05:12 10° ESE visible
01 Jun 9.3 20:52:47 10° SSW 20:53:24 11° S 20:53:24 11° S visible
02 Jun 7.1 01:46:02 66° SE 01:46:02 66° SE 01:52:13 10° ESE visible
02 Jun 8.5 04:05:05 10° W 04:10:46 41° SSW 04:20:44 10° SE visible
